^^
Station Historical Data
Daily Summary for February 11, 2018 Units:  English    Metric   Both
« Previous Day
Next Day »
Daily Weekly Monthly Yearly Custom
  High: Low: Average:
Temperature: TemperatureC °F -7.9 °F -4.7 °F
Dew Point: DewpointC °F -8.9 °F -5.6 °F
Humidity: Humidity% 92% 93%
Wind Speed: WindSpeedKMHmph 0.0mph 0.6mph
Wind Gust: WindSpeedGustKMHmph - -
Wind- - East
Pressure: PressurehPa in 1008.7 in -
Precipitation: 0.8 in    
Historical Graphs
 
 
Tabular Data for February 11, 2018
Time Temperature Dew Point Pressure Wind Wind Speed Wind Gust Humidity Rainfall Rate (Hourly) solar Conditions
TemperatureC °F DewpointC °F PressurehPa in Calm     Humidity% HourlyPrecipMM in SoftwareType W/m2 Conditions
00:00 -7.9 °F -8.9 °F 1016.8 in Calm     93% 0.0 in WeatherDisplay:10.37 W/m2 FEW
00:05 -7.9 °F -8.9 °F 1016.8 in Calm     93% 0.0 in WeatherDisplay:10.37 W/m2 FEW
00:10 -7.9 °F -8.9 °F 1016.8 in Calm     93% 0.0 in WeatherDisplay:10.37 W/m2 FEW
00:15 -7.9 °F -8.9 °F 1016.5 in Calm     93% 0.0 in WeatherDisplay:10.37 W/m2 FEW
00:20 -7.9 °F -8.8 °F 1016.5 in Calm     93% 0.0 in WeatherDisplay:10.37 W/m2 FEW
00:25 -7.8 °F -8.8 °F 1016.5 in Calm     93% 0.0 in WeatherDisplay:10.37 W/m2 FEW
00:30 -7.8 °F -8.8 °F 1016.5 in Calm     93% 0.0 in WeatherDisplay:10.37 W/m2 FEW
00:35 -7.8 °F -8.7 °F 1016.5 in Calm     93% 0.0 in WeatherDisplay:10.37 W/m2 FEW
00:40 -7.7 °F -8.7 °F 1016.5 in Calm     93% 0.0 in WeatherDisplay:10.37 W/m2 FEW
00:45 -7.7 °F -8.7 °F 1016.5 in Calm     93% 0.0 in WeatherDisplay:10.37 W/m2 FEW
00:50 -7.7 °F -8.7 °F 1016.5 in Calm     93% 0.0 in WeatherDisplay:10.37 W/m2 FEW
00:55 -7.6 °F -8.6 °F 1016.5 in Calm     93% 0.0 in WeatherDisplay:10.37 W/m2 FEW
01:00 -7.6 °F -8.5 °F 1016.5 in Calm     93% 0.0 in WeatherDisplay:10.37 W/m2 FEW
01:05 -7.5 °F -8.3 °F 1016.5 in Calm     94% 0.0 in WeatherDisplay:10.37 W/m2 FEW
01:10 -7.5 °F -8.3 °F 1016.5 in Calm     94% 0.0 in WeatherDisplay:10.37 W/m2 FEW
01:15 -7.5 °F -8.4 °F 1016.5 in Calm     93% 0.0 in WeatherDisplay:10.37 W/m2 FEW
01:20 -7.4 °F -8.4 °F 1016.5 in Calm     93% 0.0 in WeatherDisplay:10.37 W/m2 FEW
01:25 -7.4 °F -8.3 °F 1016.5 in Calm     93% 0.0 in WeatherDisplay:10.37 W/m2 FEW
01:30 -7.3 °F -8.3 °F 1016.1 in Calm     93% 0.0 in WeatherDisplay:10.37 W/m2 FEW
01:35 -7.3 °F -8.2 °F 1016.1 in Calm     93% 0.0 in WeatherDisplay:10.37 W/m2 FEW
01:40 -7.3 °F -8.1 °F 1016.1 in Calm     94% 0.0 in WeatherDisplay:10.37 W/m2 FEW
01:45 -7.2 °F -8.0 °F 1016.1 in Calm     94% 0.0 in WeatherDisplay:10.37 W/m2 FEW
01:50 -7.2 °F -7.9 °F 1016.1 in East 0.3 mph 3.2 mph 94% 0.0 in WeatherDisplay:10.37 W/m2 FEW
01:55 -7.1 °F -8.0 °F 1016.1 in Calm     93% 0.0 in WeatherDisplay:10.37 W/m2 FEW
02:00 -7.1 °F -8.0 °F 1016.1 in Calm   1.9 mph 93% 0.0 in WeatherDisplay:10.37 W/m2 FEW
02:05 -7.0 °F -7.9 °F 1015.8 in Calm     93% 0.0 in WeatherDisplay:10.37 W/m2 FEW
02:10 -6.9 °F -7.9 °F 1015.8 in Calm     93% 0.0 in WeatherDisplay:10.37 W/m2 FEW
02:15 -6.9 °F -7.9 °F 1015.8 in East 0.3 mph 3.7 mph 93% 0.0 in WeatherDisplay:10.37 W/m2 FEW
02:20 -6.9 °F -7.7 °F 1015.8 in Calm   3.7 mph 94% 0.0 in WeatherDisplay:10.37 W/m2 FEW
02:25 -6.8 °F -7.6 °F 1015.8 in Calm     94% 0.0 in WeatherDisplay:10.37 W/m2 FEW
02:30 -6.8 °F -7.6 °F 1015.8 in Calm   1.6 mph 94% 0.0 in WeatherDisplay:10.37 W/m2 FEW
02:35 -6.8 °F -7.6 °F 1015.5 in Calm     94% 0.0 in WeatherDisplay:10.37 W/m2 FEW
02:40 -6.8 °F -7.6 °F 1015.5 in East 3.5 mph 7.4 mph 94% 0.0 in WeatherDisplay:10.37 W/m2 FEW
02:45 -6.7 °F -7.7 °F 1015.5 in East 1.8 mph 3.2 mph 93% 0.0 in WeatherDisplay:10.37 W/m2 FEW
02:50 -6.7 °F -7.7 °F 1015.5 in Calm   3.2 mph 93% 0.0 in WeatherDisplay:10.37 W/m2 FEW
02:55 -6.7 °F -7.6 °F 1015.5 in Calm   5.6 mph 93% 0.0 in WeatherDisplay:10.37 W/m2 FEW
03:00 -6.7 °F -7.6 °F 1015.5 in East 1.0 mph 5.6 mph 93% 0.0 in WeatherDisplay:10.37 W/m2 FEW
03:05 -6.6 °F -7.6 °F 1015.5 in East 2.4 mph 5.6 mph 93% 0.0 in WeatherDisplay:10.37 W/m2 FEW
03:10 -6.6 °F -7.5 °F 1015.1 in Calm   1.9 mph 93% 0.0 in WeatherDisplay:10.37 W/m2 FEW
03:15 -6.6 °F -7.3 °F 1015.1 in East 2.4 mph 3.7 mph 94% 0.0 in WeatherDisplay:10.37 W/m2 FEW
03:20 -6.6 °F -7.3 °F 1015.1 in East 1.3 mph 5.6 mph 94% 0.0 in WeatherDisplay:10.37 W/m2 FEW
03:25 -6.5 °F -7.3 °F 1015.1 in East 3.1 mph 5.6 mph 94% 0.0 in WeatherDisplay:10.37 W/m2 FEW
03:30 -6.4 °F -7.3 °F 1015.1 in East 2.3 mph 3.7 mph 94% 0.0 in WeatherDisplay:10.37 W/m2 FEW
03:36 -6.4 °F -7.3 °F 1015.1 in East 0.2 mph 3.7 mph 94% 0.0 in WeatherDisplay:10.37 W/m2 FEW
03:41 -6.4 °F -7.2 °F 1014.8 in Calm     94% 0.0 in WeatherDisplay:10.37 W/m2 FEW
03:46 -6.3 °F -7.2 °F 1014.8 in Calm     94% 0.0 in WeatherDisplay:10.37 W/m2 FEW
03:51 -6.3 °F -7.3 °F 1014.8 in East 0.5 mph 3.7 mph 93% 0.0 in WeatherDisplay:10.37 W/m2 FEW
03:56 -6.3 °F -7.2 °F 1014.8 in East 2.1 mph 5.6 mph 93% 0.0 in WeatherDisplay:10.37 W/m2 FEW
04:01 -6.3 °F -7.1 °F 1014.8 in East 1.6 mph 5.6 mph 94% 0.0 in WeatherDisplay:10.37 W/m2 FEW
04:06 -6.2 °F -7.1 °F 1014.4 in East 0.5 mph 3.2 mph 94% 0.0 in WeatherDisplay:10.37 W/m2 FEW
04:11 -6.2 °F -7.0 °F 1014.4 in Calm   1.9 mph 94% 0.0 in WeatherDisplay:10.37 W/m2 FEW
04:16 -6.2 °F -7.0 °F 1014.4 in East 3.1 mph 3.7 mph 94% 0.0 in WeatherDisplay:10.37 W/m2 FEW
04:21 -6.1 °F -6.9 °F 1014.4 in East 1.3 mph 3.7 mph 94% 0.0 in WeatherDisplay:10.37 W/m2 FEW
04:26 -6.1 °F -6.9 °F 1014.4 in East 2.3 mph 5.6 mph 94% 0.0 in WeatherDisplay:10.37 W/m2 FEW
04:31 -6.1 °F -7.0 °F 1014.4 in East 3.2 mph 5.6 mph 93% 0.0 in WeatherDisplay:10.37 W/m2 FEW
04:36 -6.0 °F -6.8 °F 1014.4 in East 2.6 mph 5.6 mph 94% 0.0 in WeatherDisplay:10.37 W/m2 FEW
04:41 -5.9 °F -6.8 °F 1014.1 in East 0.2 mph 5.6 mph 94% 0.0 in WeatherDisplay:10.37 W/m2 FEW
04:46 -5.9 °F -6.8 °F 1014.1 in Calm     94% 0.0 in WeatherDisplay:10.37 W/m2 FEW
04:51 -5.9 °F -6.7 °F 1014.4 in Calm     94% 0.0 in WeatherDisplay:10.37 W/m2 FEW
04:56 -5.8 °F -6.7 °F 1014.1 in Calm     94% 0.0 in WeatherDisplay:10.37 W/m2 FEW
05:01 -5.8 °F -6.7 °F 1014.1 in Calm     94% 0.0 in WeatherDisplay:10.37 W/m2 FEW
05:06 -5.8 °F -6.6 °F 1014.1 in East 2.6 mph 5.6 mph 94% 0.0 in WeatherDisplay:10.37 W/m2 FEW
05:11 -5.8 °F -6.6 °F 1014.1 in East 2.4 mph 5.6 mph 94% 0.0 in WeatherDisplay:10.37 W/m2 FEW
05:16 -5.8 °F -6.7 °F 1014.1 in East 3.4 mph 5.6 mph 93% 0.0 in WeatherDisplay:10.37 W/m2 FEW
05:21 -5.7 °F -6.7 °F 1014.1 in Calm     93% 0.0 in WeatherDisplay:10.37 W/m2 FEW
05:26 -5.7 °F -6.7 °F 1014.1 in Calm     93% 0.0 in WeatherDisplay:10.37 W/m2 FEW
05:31 -5.7 °F -6.7 °F 1014.1 in East 0.3 mph 3.7 mph 93% 0.0 in WeatherDisplay:10.37 W/m2 FEW
05:36 -5.7 °F -6.7 °F 1014.1 in Calm   1.9 mph 93% 0.0 in WeatherDisplay:10.37 W/m2 FEW
05:41 -5.7 °F -6.5 °F 1014.1 in Calm     94% 0.0 in WeatherDisplay:10.37 W/m2 FEW
05:46 -5.7 °F -6.5 °F 1014.1 in East 1.3 mph 3.7 mph 94% 0.0 in WeatherDisplay:10.37 W/m2 FEW
05:51 -5.7 °F -6.5 °F 1013.8 in Calm     94% 0.0 in WeatherDisplay:10.37 W/m2 FEW
05:56 -5.6 °F -6.6 °F 1013.8 in Calm     93% 0.0 in WeatherDisplay:10.37 W/m2 FEW
06:01 -5.6 °F -6.6 °F 1013.8 in Calm     93% 0.0 in WeatherDisplay:10.37 W/m2 FEW
06:06 -5.6 °F -6.5 °F 1013.8 in East 0.5 mph 3.7 mph 93% 0.0 in WeatherDisplay:10.37 W/m2 FEW
06:11 -5.6 °F -6.5 °F 1013.8 in East 0.6 mph 5.6 mph 93% 0.0 in WeatherDisplay:10.37 W/m2 FEW
06:16 -5.6 °F -6.5 °F 1013.8 in East 4.3 mph 5.6 mph 93% 0.0 in WeatherDisplay:10.37 W/m2 FEW
06:21 -5.6 °F -6.5 °F 1013.8 in East 1.6 mph 4.8 mph 93% 0.0 in WeatherDisplay:10.37 W/m2 FEW
06:26 -5.6 °F -6.5 °F 1013.8 in Calm     93% 0.0 in WeatherDisplay:10.37 W/m2 FEW
06:31 -5.6 °F -6.5 °F 1013.8 in ENE 4.0 mph 5.6 mph 93% 0.0 in WeatherDisplay:10.37 W/m2 FEW
06:36 -5.6 °F -6.6 °F 1013.8 in ENE 3.1 mph 5.6 mph 93% 0.0 in WeatherDisplay:10.37 W/m2 FEW
06:41 -5.6 °F -6.6 °F 1013.8 in ENE 1.3 mph 5.6 mph 93% 0.0 in WeatherDisplay:10.37 W/m2 FEW
06:46 -5.6 °F -6.6 °F 1013.4 in Calm     93% 0.0 in WeatherDisplay:10.37 W/m2 FEW
06:56 -5.6 °F -6.6 °F 1013.4 in Calm     93% 0.0 in WeatherDisplay:10.37 W/m2 FEW
07:01 -5.6 °F -6.6 °F 1013.4 in ENE 2.3 mph 5.6 mph 93% 0.0 in WeatherDisplay:10.37 W/m2 FEW
07:06 -5.6 °F -6.6 °F 1013.4 in ENE 1.9 mph 3.7 mph 93% 0.0 in WeatherDisplay:10.37 W/m2 FEW
07:11 -5.6 °F -6.5 °F 1013.4 in ENE 0.5 mph 4.8 mph 93% 0.3 in WeatherDisplay:10.37 W/m2 RA
07:16 -5.6 °F -6.5 °F 1013.4 in ENE 2.9 mph 5.6 mph 93% 0.3 in WeatherDisplay:10.37 W/m2 RA
07:21 -5.6 °F -6.5 °F 1013.4 in Calm   5.6 mph 93% 0.3 in WeatherDisplay:10.37 W/m2 FEW
07:26 -5.6 °F -6.5 °F 1013.4 in Calm     93% 0.3 in WeatherDisplay:10.37 W/m2 FEW
07:31 -5.6 °F -6.5 °F 1013.4 in Calm     93% 0.3 in WeatherDisplay:10.37 W/m2 FEW
07:36 -5.6 °F -6.5 °F 1013.4 in Calm     93% 0.3 in WeatherDisplay:10.37 W/m2 FEW
07:41 -5.6 °F -6.5 °F 1013.1 in Calm     93% 0.3 in WeatherDisplay:10.37 W/m2 FEW
07:46 -5.5 °F -6.4 °F 1013.1 in Calm     93% 0.3 in WeatherDisplay:10.37 W/m2 FEW
07:51 -5.5 °F -6.4 °F 1013.1 in Calm     93% 0.3 in WeatherDisplay:10.37 W/m2 FEW
07:56 -5.5 °F -6.4 °F 1013.1 in Calm     93% 0.3 in WeatherDisplay:10.37 W/m2 FEW
08:01 -5.4 °F -6.3 °F 1013.1 in ENE 0.3 mph 5.6 mph 94% 0.3 in WeatherDisplay:10.37 W/m2 FEW
08:06 -5.4 °F -6.3 °F 1013.1 in Calm     94% 0.3 in WeatherDisplay:10.37 W/m2 FEW
08:11 -5.4 °F -6.3 °F 1013.1 in ENE 0.5 mph 3.7 mph 94% 0.0 in WeatherDisplay:10.37 W/m2 FEW
08:16 -5.4 °F -6.3 °F 1012.8 in Calm   5.6 mph 94% 0.0 in WeatherDisplay:10.37 W/m2 FEW
08:21 -5.4 °F -6.2 °F 1012.8 in Calm     94% 0.0 in WeatherDisplay:10.37 W/m2 FEW
08:26 -5.4 °F -6.2 °F 1012.8 in ENE 0.8 mph 5.6 mph 94% 0.0 in WeatherDisplay:10.37 W/m2 FEW
08:31 -5.3 °F -6.2 °F 1012.8 in Calm     94% 0.0 in WeatherDisplay:10.37 W/m2 FEW
08:36 -5.3 °F -6.2 °F 1012.8 in ENE 1.4 mph 3.7 mph 94% 0.0 in WeatherDisplay:10.37 W/m2 FEW
08:37 -5.3 °F -6.2 °F 1012.8 in ENE 1.0 mph 5.6 mph 94% 0.0 in WeatherDisplay:10.37 W/m2 FEW
08:42 -5.3 °F -6.2 °F 1012.8 in Calm     94% 0.0 in WeatherDisplay:10.37 W/m2 FEW
08:47 -5.3 °F -6.1 °F 1012.8 in ENE 1.0 mph 3.7 mph 94% 0.0 in WeatherDisplay:10.37 W/m2 FEW
08:52 -5.2 °F -6.1 °F 1012.8 in ENE 0.8 mph 1.9 mph 94% 0.0 in WeatherDisplay:10.37 W/m2 FEW
08:57 -5.2 °F -6.0 °F 1012.8 in ENE 2.4 mph 5.6 mph 94% 0.0 in WeatherDisplay:10.37 W/m2 FEW
09:02 -5.2 °F -6.0 °F 1012.8 in Calm     94% 0.0 in WeatherDisplay:10.37 W/m2 FEW
09:07 -5.2 °F -6.0 °F 1012.8 in ENE 1.1 mph 3.2 mph 94% 0.0 in WeatherDisplay:10.37 W/m2 FEW
09:12 -5.1 °F -5.9 °F 1012.8 in ENE 1.6 mph 3.7 mph 94% 0.0 in WeatherDisplay:10.37 W/m2 FEW
09:17 -5.1 °F -5.9 °F 1012.8 in Calm     94% 0.0 in WeatherDisplay:10.37 W/m2 FEW
09:22 -5.1 °F -5.9 °F 1012.8 in ENE 0.5 mph 3.7 mph 94% 0.0 in WeatherDisplay:10.37 W/m2 FEW
09:27 -5.1 °F -5.9 °F 1012.8 in ENE 0.8 mph 3.7 mph 94% 0.0 in WeatherDisplay:10.37 W/m2 FEW
09:32 -5.0 °F -5.1 °F 1012.8 in ENE 0.5 mph 3.7 mph 99% 0.3 in WeatherDisplay:10.37 W/m2 RA
09:37 -4.9 °F -5.8 °F 1012.4 in ENE 1.0 mph 5.6 mph 94% 0.3 in WeatherDisplay:10.37 W/m2 RA
09:42 -4.9 °F -5.8 °F 1012.4 in Calm     94% 0.3 in WeatherDisplay:10.37 W/m2 FEW
09:47 -4.9 °F -5.7 °F 1012.8 in Calm     94% 0.3 in WeatherDisplay:10.37 W/m2 FEW
09:52 -4.8 °F -5.7 °F 1012.8 in ENE 1.1 mph 3.7 mph 94% 0.3 in WeatherDisplay:10.37 W/m2 FEW
09:57 -4.8 °F -5.6 °F 1012.8 in ENE 0.3 mph 3.2 mph 94% 0.3 in WeatherDisplay:10.37 W/m2 FEW
10:02 -4.7 °F -5.6 °F 1012.8 in ENE 2.6 mph 5.6 mph 94% 0.3 in WeatherDisplay:10.37 W/m2 FEW
10:07 -4.7 °F -5.6 °F 1012.8 in Calm   3.7 mph 94% 0.3 in WeatherDisplay:10.37 W/m2 FEW
10:12 -4.7 °F -5.5 °F 1012.8 in ENE 1.8 mph 3.7 mph 94% 0.3 in WeatherDisplay:10.37 W/m2 FEW
10:17 -4.6 °F -5.6 °F 1012.4 in ENE 0.8 mph 3.7 mph 93% 0.3 in WeatherDisplay:10.37 W/m2 FEW
10:22 -4.6 °F -5.5 °F 1012.4 in Calm     93% 0.3 in WeatherDisplay:10.37 W/m2 FEW
10:27 -4.5 °F -5.4 °F 1012.4 in ENE 0.2 mph 5.6 mph 93% 0.3 in WeatherDisplay:10.37 W/m2 FEW
10:32 -4.4 °F -5.4 °F 1012.4 in Calm     93% 0.0 in WeatherDisplay:10.37 W/m2 FEW
10:37 -4.4 °F -5.2 °F 1012.4 in Calm     94% 0.0 in WeatherDisplay:10.37 W/m2 FEW
10:42 -4.3 °F -5.3 °F 1012.4 in ENE 0.8 mph 5.6 mph 93% 0.0 in WeatherDisplay:10.37 W/m2 FEW
10:47 -4.3 °F -5.2 °F 1012.4 in Calm     93% 0.0 in WeatherDisplay:10.37 W/m2 FEW
10:52 -4.2 °F -5.1 °F 1012.1 in Calm   5.6 mph 94% 0.0 in WeatherDisplay:10.37 W/m2 FEW
10:57 -4.2 °F -5.0 °F 1012.1 in ENE 0.6 mph   94% 0.0 in WeatherDisplay:10.37 W/m2 FEW
11:02 -4.1 °F -4.9 °F 1012.1 in Calm     94% 0.0 in WeatherDisplay:10.37 W/m2 FEW
11:32 -3.8 °F -4.8 °F 1012.1 in Calm   3.2 mph 93% 0.0 in WeatherDisplay:10.37 W/m2 FEW
11:37 -3.8 °F -4.7 °F 1012.1 in ENE 3.5 mph 3.7 mph 93% 0.0 in WeatherDisplay:10.37 W/m2 FEW
11:42 -3.7 °F -4.7 °F 1012.1 in Calm   3.7 mph 93% 0.0 in WeatherDisplay:10.37 W/m2 FEW
11:47 -3.7 °F -4.6 °F 1011.7 in East 4.0 mph 5.6 mph 93% 0.0 in WeatherDisplay:10.37 W/m2 FEW
11:52 -3.6 °F -4.6 °F 1011.7 in Calm   1.9 mph 93% 0.0 in WeatherDisplay:10.37 W/m2 FEW
11:57 -3.6 °F -4.5 °F 1011.7 in Calm     93% 0.0 in WeatherDisplay:10.37 W/m2 FEW
12:02 -3.6 °F -4.5 °F 1011.7 in Calm   5.6 mph 93% 0.0 in WeatherDisplay:10.37 W/m2 FEW
12:07 -3.6 °F -4.5 °F 1011.7 in East 3.4 mph 5.6 mph 93% 0.0 in WeatherDisplay:10.37 W/m2 FEW
12:13 -3.6 °F -4.5 °F 1011.7 in East 1.6 mph 5.6 mph 93% 0.0 in WeatherDisplay:10.37 W/m2 FEW
12:18 -3.6 °F -4.5 °F 1011.7 in Calm     93% 0.0 in WeatherDisplay:10.37 W/m2 FEW
12:23 -3.6 °F -4.5 °F 1011.7 in Calm     93% 0.0 in WeatherDisplay:10.37 W/m2 FEW
12:28 -3.6 °F -4.5 °F 1011.4 in East 3.1 mph 5.6 mph 93% 0.0 in WeatherDisplay:10.37 W/m2 FEW
12:33 -3.6 °F -4.5 °F 1011.7 in Calm     93% 0.0 in WeatherDisplay:10.37 W/m2 FEW
12:38 -3.6 °F -4.5 °F 1011.7 in Calm     93% 0.0 in WeatherDisplay:10.37 W/m2 FEW
12:43 -3.6 °F -4.5 °F 1011.7 in Calm     93% 0.0 in WeatherDisplay:10.37 W/m2 FEW
12:48 -3.5 °F -4.4 °F 1011.4 in Calm   1.9 mph 93% 0.0 in WeatherDisplay:10.37 W/m2 FEW
12:53 -3.5 °F -4.4 °F 1011.4 in Calm   5.6 mph 93% 0.0 in WeatherDisplay:10.37 W/m2 FEW
12:58 -3.4 °F -4.4 °F 1011.4 in Calm     93% 0.0 in WeatherDisplay:10.37 W/m2 FEW
13:03 -3.4 °F -4.4 °F 1011.4 in Calm     93% 0.3 in WeatherDisplay:10.37 W/m2 RA
13:08 -3.4 °F -4.4 °F 1011.4 in Calm     93% 0.3 in WeatherDisplay:10.37 W/m2 RA
13:13 -3.4 °F -4.3 °F 1011.4 in East 1.1 mph 1.6 mph 93% 0.3 in WeatherDisplay:10.37 W/m2 FEW
13:18 -3.3 °F -4.3 °F 1011.4 in Calm     93% 0.3 in WeatherDisplay:10.37 W/m2 FEW
13:23 -3.3 °F -4.3 °F 1011.4 in Calm   5.6 mph 93% 0.3 in WeatherDisplay:10.37 W/m2 FEW
13:28 -3.3 °F -4.2 °F 1011.1 in Calm   3.7 mph 93% 0.3 in WeatherDisplay:10.37 W/m2 FEW
13:33 -3.2 °F -4.2 °F 1011.1 in ESE 3.9 mph 13.0 mph 93% 0.3 in WeatherDisplay:10.37 W/m2 FEW
13:38 -3.2 °F -4.2 °F 1011.1 in Calm     93% 0.3 in WeatherDisplay:10.37 W/m2 FEW
13:43 -3.2 °F -4.1 °F 1011.1 in ESE 0.3 mph   93% 0.3 in WeatherDisplay:10.37 W/m2 FEW
13:48 -3.2 °F -4.1 °F 1011.1 in ESE 1.4 mph   93% 0.3 in WeatherDisplay:10.37 W/m2 FEW
13:53 -3.1 °F -4.1 °F 1011.1 in ESE 1.6 mph 3.2 mph 93% 0.3 in WeatherDisplay:10.37 W/m2 FEW
13:58 -3.1 °F -4.0 °F 1011.1 in Calm     93% 0.3 in WeatherDisplay:10.37 W/m2 FEW
14:03 -3.0 °F -4.0 °F 1011.1 in Calm     93% 0.0 in WeatherDisplay:10.37 W/m2 FEW
14:08 -3.0 °F -4.0 °F 1011.1 in ESE 4.3 mph 4.3 mph 93% 0.0 in WeatherDisplay:10.37 W/m2 FEW
14:13 -2.9 °F -3.9 °F 1011.1 in Calm     93% 0.0 in WeatherDisplay:10.37 W/m2 FEW
14:18 -2.9 °F -3.9 °F 1011.1 in ESE 0.3 mph   93% 0.0 in WeatherDisplay:10.37 W/m2 FEW
14:23 -2.9 °F -3.9 °F 1011.1 in ESE 2.7 mph 3.2 mph 93% 0.0 in WeatherDisplay:10.37 W/m2 FEW
14:28 -2.9 °F -3.9 °F 1010.7 in Calm   3.7 mph 93% 0.0 in WeatherDisplay:10.37 W/m2 FEW
14:33 -2.9 °F -3.9 °F 1010.7 in Calm     93% 0.0 in WeatherDisplay:10.37 W/m2 FEW
14:38 -2.8 °F -3.8 °F 1010.7 in ESE 4.8 mph 4.8 mph 93% 0.0 in WeatherDisplay:10.37 W/m2 FEW
14:43 -2.9 °F -4.0 °F 1010.7 in ESE 1.9 mph 9.3 mph 92% 0.0 in WeatherDisplay:10.37 W/m2 FEW
14:48 -2.9 °F -4.1 °F 1010.7 in ESE 0.3 mph 5.6 mph 92% 0.0 in WeatherDisplay:10.37 W/m2 FEW
14:53 -2.9 °F -4.1 °F 1010.7 in ESE 2.3 mph 6.4 mph 92% 0.0 in WeatherDisplay:10.37 W/m2 FEW
14:58 -2.9 °F -4.1 °F 1010.7 in ESE 3.9 mph 11.3 mph 92% 0.0 in WeatherDisplay:10.37 W/m2 FEW
15:03 -2.9 °F -4.1 °F 1010.4 in Calm     92% 0.0 in WeatherDisplay:10.37 W/m2 FEW
15:08 -3.0 °F -4.1 °F 1010.4 in ESE 2.1 mph 8.0 mph 92% 0.0 in WeatherDisplay:10.37 W/m2 FEW
15:13 -3.0 °F -4.1 °F 1010.4 in ESE 2.7 mph 11.3 mph 92% 0.0 in WeatherDisplay:10.37 W/m2 FEW
15:18 -3.1 °F -4.2 °F 1010.4 in ESE 7.7 mph 11.3 mph 92% 0.0 in WeatherDisplay:10.37 W/m2 FEW
15:23 -3.1 °F -4.2 °F 1010.4 in ESE 4.5 mph 5.6 mph 92% 0.0 in WeatherDisplay:10.37 W/m2 FEW
15:28 -3.2 °F -4.3 °F 1010.4 in SE 3.2 mph 4.8 mph 92% 0.0 in WeatherDisplay:10.37 W/m2 FEW
15:33 -3.2 °F -4.3 °F 1010.4 in SE 3.4 mph 4.8 mph 92% 0.0 in WeatherDisplay:10.37 W/m2 FEW
15:38 -3.2 °F -4.3 °F 1010.4 in Calm   1.9 mph 92% 0.0 in WeatherDisplay:10.37 W/m2 FEW
15:43 -3.2 °F -4.3 °F 1010.4 in Calm   5.6 mph 92% 0.0 in WeatherDisplay:10.37 W/m2 FEW
15:48 -3.2 °F -4.3 °F 1010.4 in SE 1.8 mph 3.7 mph 92% 0.0 in WeatherDisplay:10.37 W/m2 FEW
15:53 -3.2 °F -4.2 °F 1010.0 in Calm     93% 0.0 in WeatherDisplay:10.37 W/m2 FEW
15:58 -3.2 °F -4.2 °F 1010.0 in SE 2.4 mph 5.6 mph 93% 0.0 in WeatherDisplay:10.37 W/m2 FEW
16:03 -3.2 °F -4.2 °F 1010.0 in Calm     93% 0.0 in WeatherDisplay:10.37 W/m2 FEW
16:08 -3.2 °F -4.2 °F 1010.0 in Calm     93% 0.0 in WeatherDisplay:10.37 W/m2 FEW
16:13 -3.2 °F -4.2 °F 1010.0 in SE 0.5 mph 4.8 mph 93% 0.0 in WeatherDisplay:10.37 W/m2 FEW
16:18 -3.2 °F -4.2 °F 1010.0 in Calm     93% 0.0 in WeatherDisplay:10.37 W/m2 FEW
16:23 -3.3 °F -4.2 °F 1010.0 in SE 1.1 mph 3.7 mph 93% 0.0 in WeatherDisplay:10.37 W/m2 FEW
16:28 -3.3 °F -4.2 °F 1010.0 in Calm     93% 0.0 in WeatherDisplay:10.37 W/m2 FEW
16:33 -3.3 °F -4.2 °F 1010.0 in Calm     93% 0.0 in WeatherDisplay:10.37 W/m2 FEW
16:38 -3.3 °F -4.3 °F 1010.0 in SE 1.1 mph 3.7 mph 93% 0.0 in WeatherDisplay:10.37 W/m2 FEW
16:43 -3.3 °F -4.3 °F 1010.0 in Calm     93% 0.0 in WeatherDisplay:10.37 W/m2 FEW
16:48 -3.3 °F -4.3 °F 1010.0 in Calm     93% 0.0 in WeatherDisplay:10.37 W/m2 FEW
16:53 -3.4 °F -4.3 °F 1010.0 in Calm   3.7 mph 93% 0.0 in WeatherDisplay:10.37 W/m2 FEW
16:58 -3.4 °F -4.3 °F 1010.0 in Calm     93% 0.3 in WeatherDisplay:10.37 W/m2 RA
17:03 -3.4 °F -4.3 °F 1010.0 in Calm     93% 0.3 in WeatherDisplay:10.37 W/m2 RA
17:08 -3.4 °F -4.3 °F 1010.0 in Calm   3.7 mph 93% 0.3 in WeatherDisplay:10.37 W/m2 FEW
17:13 -3.4 °F -4.4 °F 1010.0 in Calm     93% 0.3 in WeatherDisplay:10.37 W/m2 FEW
17:18 -3.4 °F -4.4 °F 1009.7 in SE 1.3 mph 3.7 mph 93% 0.3 in WeatherDisplay:10.37 W/m2 FEW
17:23 -3.4 °F -4.4 °F 1009.7 in Calm     93% 0.3 in WeatherDisplay:10.37 W/m2 FEW
17:28 -3.4 °F -4.4 °F 1010.0 in Calm     93% 0.3 in WeatherDisplay:10.37 W/m2 FEW
17:33 -3.5 °F -4.4 °F 1009.7 in Calm     93% 0.3 in WeatherDisplay:10.37 W/m2 FEW
17:38 -3.5 °F -4.4 °F 1009.7 in SE 0.5 mph 5.6 mph 93% 0.3 in WeatherDisplay:10.37 W/m2 FEW
17:43 -3.5 °F -4.4 °F 1009.7 in Calm     93% 0.3 in WeatherDisplay:10.37 W/m2 FEW
17:48 -3.5 °F -4.4 °F 1009.7 in SE 2.6 mph 5.6 mph 93% 0.3 in WeatherDisplay:10.37 W/m2 FEW
17:53 -3.5 °F -4.4 °F 1009.7 in SE 0.8 mph 5.6 mph 93% 0.3 in WeatherDisplay:10.37 W/m2 FEW
17:58 -3.6 °F -4.5 °F 1009.7 in SE 2.1 mph   93% 0.0 in WeatherDisplay:10.37 W/m2 FEW
18:03 -3.6 °F -4.5 °F 1009.7 in SE 2.1 mph 6.4 mph 93% 0.0 in WeatherDisplay:10.37 W/m2 FEW
18:08 -3.6 °F -4.5 °F 1009.7 in Calm   5.6 mph 93% 0.0 in WeatherDisplay:10.37 W/m2 FEW
18:13 -3.6 °F -4.5 °F 1009.7 in SE 0.5 mph 4.8 mph 93% 0.0 in WeatherDisplay:10.37 W/m2 FEW
18:18 -3.6 °F -4.5 °F 1009.7 in SE 1.0 mph 5.6 mph 93% 0.0 in WeatherDisplay:10.37 W/m2 FEW
18:23 -3.6 °F -4.5 °F 1009.7 in Calm     93% 0.0 in WeatherDisplay:10.37 W/m2 FEW
18:28 -3.6 °F -4.5 °F 1009.7 in SE 0.6 mph 3.7 mph 93% 0.0 in WeatherDisplay:10.37 W/m2 FEW
18:33 -3.6 °F -4.5 °F 1009.7 in Calm     93% 0.0 in WeatherDisplay:10.37 W/m2 FEW
18:38 -3.6 °F -4.5 °F 1009.7 in Calm     93% 0.0 in WeatherDisplay:10.37 W/m2 FEW
18:43 -3.6 °F -4.5 °F 1009.7 in SE 1.9 mph 1.9 mph 93% 0.0 in WeatherDisplay:10.37 W/m2 FEW
18:48 -3.6 °F -4.5 °F 1009.4 in Calm     93% 0.0 in WeatherDisplay:10.37 W/m2 FEW
18:53 -3.6 °F -4.5 °F 1009.4 in Calm     93% 0.0 in WeatherDisplay:10.37 W/m2 FEW
18:58 -3.6 °F -4.5 °F 1009.4 in Calm   3.7 mph 93% 0.0 in WeatherDisplay:10.37 W/m2 FEW
19:03 -3.6 °F -4.5 °F 1009.4 in Calm   3.7 mph 93% 0.0 in WeatherDisplay:10.37 W/m2 FEW
19:08 -3.6 °F -4.5 °F 1009.4 in Calm     93% 0.0 in WeatherDisplay:10.37 W/m2 FEW
19:13 -3.6 °F -4.5 °F 1009.4 in Calm     93% 0.0 in WeatherDisplay:10.37 W/m2 FEW
19:18 -3.6 °F -4.5 °F 1009.4 in SE 0.8 mph   93% 0.0 in WeatherDisplay:10.37 W/m2 FEW
19:23 -3.6 °F -4.5 °F 1009.4 in Calm     93% 0.0 in WeatherDisplay:10.37 W/m2 FEW
19:28 -3.6 °F -4.5 °F 1009.4 in Calm     93% 0.0 in WeatherDisplay:10.37 W/m2 FEW
19:33 -3.6 °F -4.6 °F 1009.4 in SE 1.4 mph 1.9 mph 93% 0.0 in WeatherDisplay:10.37 W/m2 FEW
19:38 -3.6 °F -4.6 °F 1009.4 in Calm     93% 0.0 in WeatherDisplay:10.37 W/m2 FEW
19:43 -3.6 °F -4.6 °F 1009.4 in Calm     93% 0.0 in WeatherDisplay:10.37 W/m2 FEW
19:48 -3.6 °F -4.6 °F 1009.4 in Calm     93% 0.0 in WeatherDisplay:10.37 W/m2 FEW
19:53 -3.6 °F -4.6 °F 1009.4 in Calm   3.7 mph 93% 0.0 in WeatherDisplay:10.37 W/m2 FEW
19:58 -3.6 °F -4.6 °F 1009.4 in Calm     93% 0.0 in WeatherDisplay:10.37 W/m2 FEW
20:03 -3.7 °F -4.6 °F 1009.4 in Calm     93% 0.0 in WeatherDisplay:10.37 W/m2 FEW
20:08 -3.6 °F -4.6 °F 1009.4 in Calm     93% 0.0 in WeatherDisplay:10.37 W/m2 FEW
20:13 -3.6 °F -4.6 °F 1009.4 in Calm     93% 0.0 in WeatherDisplay:10.37 W/m2 FEW
20:18 -3.7 °F -4.6 °F 1009.4 in Calm   5.6 mph 93% 0.0 in WeatherDisplay:10.37 W/m2 FEW
20:23 -3.7 °F -4.6 °F 1009.4 in Calm     93% 0.0 in WeatherDisplay:10.37 W/m2 FEW
20:28 -3.7 °F -4.6 °F 1009.4 in Calm     93% 0.0 in WeatherDisplay:10.37 W/m2 FEW
20:33 -3.7 °F -4.8 °F 1009.4 in Calm     92% 0.0 in WeatherDisplay:10.37 W/m2 FEW
20:38 -3.7 °F -4.8 °F 1009.0 in Calm     92% 0.0 in WeatherDisplay:10.37 W/m2 FEW
20:43 -3.7 °F -4.8 °F 1009.0 in Calm     92% 0.0 in WeatherDisplay:10.37 W/m2 FEW
20:48 -3.7 °F -4.8 °F 1009.0 in Calm     92% 0.0 in WeatherDisplay:10.37 W/m2 FEW
20:53 -3.7 °F -4.8 °F 1009.0 in Calm     92% 0.0 in WeatherDisplay:10.37 W/m2 FEW
20:58 -3.7 °F -4.8 °F 1009.0 in Calm   3.2 mph 92% 0.0 in WeatherDisplay:10.37 W/m2 FEW
21:03 -3.8 °F -4.9 °F 1009.0 in Calm     92% 0.0 in WeatherDisplay:10.37 W/m2 FEW
21:08 -3.8 °F -4.9 °F 1009.0 in Calm     92% 0.0 in WeatherDisplay:10.37 W/m2 FEW
21:13 -3.8 °F -4.9 °F 1009.0 in Calm   5.6 mph 92% 0.0 in WeatherDisplay:10.37 W/m2 FEW
21:18 -3.8 °F -4.9 °F 1009.0 in Calm     92% 0.0 in WeatherDisplay:10.37 W/m2 FEW
21:23 -3.8 °F -3.9 °F 1009.0 in Calm     99% 0.0 in WeatherDisplay:10.37 W/m2 FEW
21:28 -3.8 °F -4.9 °F 1009.0 in Calm     92% 0.0 in WeatherDisplay:10.37 W/m2 FEW
21:33 -3.8 °F -4.9 °F 1009.0 in Calm     92% 0.0 in WeatherDisplay:10.37 W/m2 FEW
21:38 -3.8 °F -4.9 °F 1009.0 in Calm     92% 0.0 in WeatherDisplay:10.37 W/m2 FEW
21:43 -3.9 °F -5.0 °F 1009.0 in Calm     92% 0.0 in WeatherDisplay:10.37 W/m2 FEW
21:48 -3.9 °F -5.0 °F 1009.0 in Calm     92% 0.0 in WeatherDisplay:10.37 W/m2 FEW
21:53 -3.9 °F -5.0 °F 1009.0 in Calm     92% 0.0 in WeatherDisplay:10.37 W/m2 FEW
21:58 -3.9 °F -5.0 °F 1009.0 in Calm     92% 0.0 in WeatherDisplay:10.37 W/m2 FEW
22:03 -3.9 °F -5.0 °F 1009.0 in Calm     92% 0.0 in WeatherDisplay:10.37 W/m2 FEW
22:08 -3.9 °F -5.0 °F 1009.0 in Calm     92% 0.0 in WeatherDisplay:10.37 W/m2 FEW
22:13 -3.9 °F -5.0 °F 1009.0 in Calm     92% 0.0 in WeatherDisplay:10.37 W/m2 FEW
22:18 -3.9 °F -5.0 °F 1009.0 in Calm     92% 0.0 in WeatherDisplay:10.37 W/m2 FEW
22:23 -3.9 °F -4.9 °F 1009.0 in Calm     93% 0.0 in WeatherDisplay:10.37 W/m2 FEW
22:28 -3.9 °F -4.9 °F 1009.0 in Calm     93% 0.0 in WeatherDisplay:10.37 W/m2 FEW
22:33 -3.9 °F -4.9 °F 1009.0 in Calm     93% 0.0 in WeatherDisplay:10.37 W/m2 FEW
22:38 -3.9 °F -5.1 °F 1009.0 in Calm     92% 0.0 in WeatherDisplay:10.37 W/m2 FEW
22:43 -3.9 °F -5.1 °F 1009.0 in Calm     92% 0.0 in WeatherDisplay:10.37 W/m2 FEW
22:48 -3.9 °F -5.1 °F 1009.0 in Calm     92% 0.0 in WeatherDisplay:10.37 W/m2 FEW
22:54 -4.0 °F -4.9 °F 1009.0 in Calm     93% 0.0 in WeatherDisplay:10.37 W/m2 FEW
22:59 -4.0 °F -4.9 °F 1009.0 in Calm     93% 0.0 in WeatherDisplay:10.37 W/m2 FEW
23:04 -4.0 °F -4.9 °F 1009.0 in Calm     93% 0.0 in WeatherDisplay:10.37 W/m2 FEW
23:09 -4.0 °F -4.9 °F 1009.0 in Calm     93% 0.0 in WeatherDisplay:10.37 W/m2 FEW
23:14 -4.0 °F -4.9 °F 1008.7 in Calm     93% 0.0 in WeatherDisplay:10.37 W/m2 FEW
23:19 -4.0 °F -4.9 °F 1008.7 in Calm     93% 0.0 in WeatherDisplay:10.37 W/m2 FEW
23:24 -4.1 °F -5.0 °F 1008.7 in Calm     93% 0.0 in WeatherDisplay:10.37 W/m2 FEW
23:29 -4.1 °F -5.0 °F 1008.7 in Calm     93% 0.0 in WeatherDisplay:10.37 W/m2 FEW
23:34 -4.1 °F -5.0 °F 1008.7 in Calm     93% 0.0 in WeatherDisplay:10.37 W/m2 FEW
23:39 -4.1 °F -5.0 °F 1008.7 in Calm     93% 0.0 in WeatherDisplay:10.37 W/m2 FEW
23:44 -4.1 °F -5.0 °F 1008.7 in Calm     93% 0.0 in WeatherDisplay:10.37 W/m2 FEW
23:49 -4.1 °F -5.0 °F 1008.7 in Calm     93% 0.0 in WeatherDisplay:10.37 W/m2 FEW
23:54 -4.1 °F -5.0 °F 1008.7 in Calm     93% 0.0 in WeatherDisplay:10.37 W/m2 FEW
23:59 -4.0 °F -4.9 °F 1008.7 in Calm     93% 0.0 in WeatherDisplay:10.37 W/m2 FEW
Tuulensuunkaari, Veikkola, Suomi
Compliments of Weather Underground - 2.5 mb